Flag for Poland Weather past 2 weeks in Lódz, Poland

Now
64 °F

Overcast.


Feels Like: 64 °F
Forecast: 54 / 69 °F
Wind: 5 mph from Northwest

Location: Lodz

Current Time: May 29, 2015 at 12:45:14 PM

Latest Report: May 29, 2015 at 12:00 PM


Visibility: 13 mi

Pressure: 29.93 "Hg

Humidity: 51%

Dew point: 45 °F

Location of LódzLocation

Historic Weather in Lódz — Graph

°F

Lódz temperature yesterday

Maximum temperature yesterday: 60 °F (at 5:00 PM)
Minimum temperature yesterday: 45 °F (at 5:00 AM)
Average temperature yesterday: 54 °F

Past Weeks' High & Low Weather Summary

 TemperatureHumidityPressure
High75 °F (May 19, 1:00 PM)96% (May 26, 3:00 AM)30.27 "Hg (May 26, 3:00 AM)
Low38 °F (May 15, 2:00 AM)32% (May 16, 5:00 PM)29.70 "Hg (May 19, 1:00 PM)
Average56 °F66%29.99 "Hg
* Reported May 14 11:00 AM — May 29 11:00 AM, Lódz, Weather by CustomWeather, © 2015

Note: Actual official high and low records may vary slightly from our data, if they occured in-between our weather recording intervals... More about our weather records

Advertising

Lódz weather history for previous 24 hours

 ConditionsComfort  
Time TempWeatherWind HumidityBarometerVisibility
11:00 AM
Fri, May 29
61 °FPartly sunny.2 mph56%29.94 "Hg12 mi
10:00 AM57 °FPartly sunny.3 mph62%29.95 "Hg12 mi
9:00 AM54 °FPartly sunny.5 mph66%29.94 "Hg12 mi
8:00 AM53 °FLight rain. Overcast.N/A68%29.94 "Hg12 mi
7:00 AM50 °FPartly sunny.N/A70%29.95 "Hg12 mi
6:00 AM46 °FScattered clouds.N/A81%29.95 "Hg9 mi
5:00 AM42 °FPassing clouds.1 mph85%29.96 "Hg12 mi
4:00 AM42 °FPassing clouds.N/A82%29.96 "Hg12 mi
3:00 AM45 °FPassing clouds.1 mph78%29.96 "Hg12 mi
2:00 AM47 °FPassing clouds.2 mph74%29.97 "Hg12 mi
12:00 AM48 °FClear.1 mph74%29.98 "Hg12 mi
10:00 PM
Thu, May 28
50 °FPassing clouds.1 mph71%29.98 "Hg12 mi
9:00 PM54 °FPassing clouds.2 mph61%29.97 "Hg12 mi
8:00 PM58 °FPartly sunny.2 mph50%29.96 "Hg12 mi
7:00 PM59 °FOvercast.3 mph44%29.96 "Hg12 mi
6:00 PM60 °FOvercast.3 mph44%29.98 "Hg12 mi
5:00 PM60 °FPartly sunny.2 mph41%29.98 "Hg12 mi
4:00 PM59 °FPartly sunny.2 mph42%30.00 "Hg12 mi
2:00 PM57 °FOvercast.3 mph49%30.03 "Hg12 mi
Weather by CustomWeather, © 2015

See weather overviewHow to use our weather pages